Weather History for KEQY - December, 2012

Change the Weather History Date:

Monday, December 10, 2012

  Actual Average (KCLT) Record (KCLT)
Temperature  
Mean Temperature 62 °F 43 °F  
Max Temperature 70 °F 54 °F 80 °F (2007)
Min Temperature 55 °F 33 °F 13 °F (1917)
Degree Days  
Heating Degree Days 2 22  
Month to date heating degree days 204  
Since 1 July heating degree days 840  
Cooling Degree Days 0 0  
Month to date cooling degree days 0  
Year to date cooling degree days 1517  
Growing Degree Days 12 (Base 50)    
Moisture  
Dew Point 57 °F    
Average Humidity 90    
Maximum Humidity 100    
Minimum Humidity 65    
Precipitation  
Precipitation 0.00 in 0.10 in 1.91 in (1969)
Month to date precipitation 1.07  
Year to date precipitation 39.45  
Snow  
Snow 0.00 in 0.00 in T in (1973)
Month to date snowfall 0.0  
Since 1 July snowfall 0.1  
Snow Depth -    
Sea Level Pressure  
Sea Level Pressure 29.86 in    
Wind  
Wind Speed 6 mph (SW)    
Max Wind Speed 18 mph    
Max Gust Speed 24 mph    
Visibility 6 miles    
Events Fog , Rain    
T = Trace of Precipitation, MM = Missing Value Source: NWS Daily Summary

Daily Weather History Graph

Daily Weather History Graph

Search for Another Location

Airport or City:

Trip Planner

Search our weather history database for the weather conditions in past years. The results will help you decide how hot, cold, wet, or windy it might be!

Date:

Astronomy

Dec. 10, 2012 Rise Set
Actual Time 7:19 AM EST 5:11 PM EST
Civil Twilight 6:51 AM EST 5:39 PM EST
Nautical Twilight 6:20 AM EST 6:10 PM EST
Astronomical Twilight 5:49 AM EST 6:41 PM EST
Moon 4:06 AM EST (12/10) 2:55 PM EST (12/10)
Length of Visible Light 10h 47m
Length of Day
9h 51m
Waning Crescent, 10% of the Moon is Illuminated
Dec 10
Waning Crescent
Dec 13
New
Dec 20
First Quarter
Dec 28
Full
Jan 4
Last Quarter

Hourly Weather History & Observations

Time (EST) Temp. Dew Point Humidity Pressure Visibility Wind Dir Wind Speed Gust Speed Precip Events Conditions
12:26 AM 59.0 °F 57.2 °F 94% 29.98 in 2.5 mi WSW 4.6 mph - N/A   Overcast
12:33 AM 57.2 °F 57.2 °F 100% 29.97 in 5.0 mi SW 3.5 mph - N/A   Overcast
12:53 AM 60.1 °F 59.0 °F 96% 29.99 in 7.0 mi West 3.5 mph - N/A   Overcast
1:40 AM 57.2 °F 57.2 °F 100% 29.95 in 1.8 mi SW 3.5 mph - N/A   Partly Cloudy
1:46 AM 57.2 °F 57.2 °F 100% 29.95 in 0.5 mi Calm Calm - N/A Fog Fog
1:53 AM 57.9 °F 57.0 °F 97% 29.96 in 0.5 mi Calm Calm - N/A Fog Fog
2:05 AM 57.2 °F 55.4 °F 94% 29.94 in 0.8 mi Calm Calm - N/A   Mostly Cloudy
2:18 AM 57.2 °F 57.2 °F 100% 29.94 in 1.2 mi SW 4.6 mph - N/A   Scattered Clouds
2:27 AM 57.2 °F 57.2 °F 100% 29.94 in 3.0 mi SW 4.6 mph - N/A   Mostly Cloudy
2:46 AM 57.2 °F 57.2 °F 100% 29.93 in 2.5 mi SW 3.5 mph - N/A   Mostly Cloudy
2:53 AM 57.0 °F 57.0 °F 100% 29.95 in 4.0 mi SSW 3.5 mph - N/A   Mostly Cloudy
3:53 AM 57.0 °F 55.9 °F 96% 29.92 in 2.0 mi Calm Calm - N/A   Scattered Clouds
4:16 AM 55.4 °F 55.4 °F 100% 29.90 in 0.8 mi Calm Calm - N/A   Scattered Clouds
4:27 AM 57.2 °F 55.4 °F 94% 29.90 in 2.0 mi WSW 3.5 mph - N/A   Scattered Clouds
4:35 AM 57.2 °F 55.4 °F 94% 29.90 in 5.0 mi WSW 4.6 mph - N/A   Mostly Cloudy
4:53 AM 57.9 °F 57.0 °F 97% 29.91 in 5.0 mi WSW 3.5 mph - N/A   Mostly Cloudy
5:06 AM 57.2 °F 57.2 °F 100% 29.89 in 3.0 mi Calm Calm - N/A   Mostly Cloudy
5:28 AM 57.2 °F 57.2 °F 100% 29.88 in 1.5 mi Calm Calm - N/A   Mostly Cloudy
5:37 AM 57.2 °F 57.2 °F 100% 29.88 in 1.0 mi Calm Calm - N/A   Overcast
5:53 AM 57.0 °F 55.9 °F 96% 29.90 in 1.8 mi SSW 3.5 mph - N/A   Mostly Cloudy
5:56 AM 57.2 °F 55.4 °F 94% 29.88 in 2.0 mi SSW 3.5 mph - N/A   Mostly Cloudy
6:05 AM 57.2 °F 57.2 °F 100% 29.88 in 3.0 mi SW 4.6 mph - N/A   Mostly Cloudy
6:15 AM 57.2 °F 57.2 °F 100% 29.88 in 4.0 mi SW 3.5 mph - N/A   Mostly Cloudy
6:53 AM 59.0 °F 57.9 °F 96% 29.89 in 3.0 mi SW 10.4 mph - N/A   Overcast
7:03 AM 60.8 °F 59.0 °F 94% 29.87 in 2.5 mi SW 8.1 mph - N/A   Overcast
7:31 AM 59.0 °F 59.0 °F 100% 29.87 in 1.5 mi SW 6.9 mph - N/A   Overcast
7:53 AM 60.1 °F 59.0 °F 96% 29.87 in 1.2 mi SSW 6.9 mph - N/A   Overcast
8:03 AM 60.8 °F 59.0 °F 94% 29.86 in 2.5 mi SW 10.4 mph - N/A   Overcast
8:10 AM 60.8 °F 59.0 °F 94% 29.86 in 4.0 mi SW 8.1 mph - N/A   Overcast
8:32 AM 60.8 °F 59.0 °F 94% 29.86 in 6.0 mi SW 9.2 mph - N/A   Overcast
8:53 AM 60.1 °F 59.0 °F 96% 29.88 in 8.0 mi SSW 6.9 mph - N/A   Overcast
9:53 AM 63.0 °F 59.0 °F 87% 29.88 in 10.0 mi SSW 9.2 mph - N/A   Overcast
10:42 AM 64.4 °F 57.2 °F 77% 29.84 in 10.0 mi SW 16.1 mph 21.9 mph N/A   Mostly Cloudy
10:53 AM 64.0 °F 57.9 °F 80% 29.86 in 10.0 mi SSW 12.7 mph 19.6 mph N/A   Mostly Cloudy
11:07 AM 64.4 °F 57.2 °F 77% 29.84 in 10.0 mi SSW 10.4 mph - N/A   Mostly Cloudy
11:40 AM 66.2 °F 57.2 °F 73% 29.82 in 10.0 mi SW 12.7 mph 19.6 mph N/A   Mostly Cloudy
11:53 AM 68.0 °F 57.9 °F 70% 29.83 in 10.0 mi SW 13.8 mph - N/A   Mostly Cloudy
12:53 PM 69.1 °F 57.9 °F 68% 29.79 in 10.0 mi SW 15.0 mph 23.0 mph N/A   Mostly Cloudy
1:53 PM 70.0 °F 57.9 °F 65% 29.76 in 10.0 mi SW 15.0 mph 24.2 mph N/A   Overcast
2:53 PM 69.1 °F 57.9 °F 68% 29.76 in 10.0 mi SW 15.0 mph 21.9 mph N/A   Overcast
3:53 PM 69.1 °F 57.0 °F 65% 29.75 in 10.0 mi SSW 6.9 mph - N/A   Mostly Cloudy
4:53 PM 68.0 °F 55.9 °F 65% 29.75 in 10.0 mi SW 12.7 mph 19.6 mph N/A   Overcast
5:53 PM 66.0 °F 57.0 °F 73% 29.78 in 10.0 mi SW 18.4 mph 24.2 mph 0.00 in   Overcast
6:53 PM 64.0 °F 57.0 °F 78% 29.77 in 10.0 mi SW 12.7 mph 19.6 mph 0.00 in Rain Light Rain
7:53 PM 64.0 °F 57.9 °F 80% 29.77 in 10.0 mi SSW 10.4 mph - 0.00 in Rain Light Rain
8:53 PM 64.0 °F 57.9 °F 80% 29.76 in 10.0 mi SW 16.1 mph 24.2 mph 0.00 in   Mostly Cloudy
9:53 PM 63.0 °F 59.0 °F 87% 29.74 in 10.0 mi SW 12.7 mph - 0.00 in   Mostly Cloudy
10:53 PM 62.1 °F 59.0 °F 90% 29.76 in 10.0 mi SW 11.5 mph - N/A   Mostly Cloudy
11:11 PM 62.6 °F 59.0 °F 88% 29.74 in 10.0 mi SW 9.2 mph - N/A   Mostly Cloudy
11:53 PM 62.1 °F 59.0 °F 90% 29.77 in 10.0 mi WSW 11.5 mph - N/A   Overcast